Volver al catálogo

COSMOS 839 DEB

ActivoUNKNOWN
NORAD 13947·DEBRIS·🇷🇺 Russia

Lanzado Jul 8, 1976 desde Plesetsk Cosmodrome

Loading…

Próximos Pases (próximas 24 horas)

TLE

ActualizadoSource: Space-Track

Época: Sep 14, 2026, 05:00 UTC

1 13947U 76067BF  26257.20887215  .00000012  00000-0  29299-3 0  9992
2 13947  65.7191 172.5441 0666656  23.8700 121.7156 12.24398520555198

Sigue COSMOS 839 DEB en tiempo real con AllMySat

Download on the App Store